Regional Weather Roundup
Issued by NWS

Home | Current Version | Previous Version | Graphics & Text | Print | Product List | Glossary Off
Versions: 1 2 3 4 5 6 7 8 9 10 11 12 13 14 15 16 17 18 19 20 21 22 23 24 25 26 27 28 29 30 31 32 33 34 35 36 37 38 39 40 41 42 43 44 45 46 47 48 49 50

000
ASUS43 KTOP 220259
RWRKS

WEATHER ROUNDUP FOR KANSAS
NATIONAL WEATHER SERVICE GOODLAND KS
900 PM CST SAT JAN 21 2017

NOTE:  "FAIR" INDICATES FEW OR NO CLOUDS BELOW 12,000 FEET WITH NO
SIGNIFICANT WEATHER AND/OR OBSTRUCTIONS TO VISIBILITY.

KSZ001>006-013>018-027>032-041>047-220400-
NORTHWEST KANSAS

CITY           SKY/WX    TMP DP  RH WIND       PRES   REMARKS
GOODLAND       CLOUDY    32  28  85 N7        29.53R
HAYS           CLOUDY    44  38  79 NE12      29.49R
HILL CITY      CLOUDY    40  36  86 NE10      29.52R WCI  33
RUSSELL        CLOUDY    44  37  76 NE9       29.47R
$$

KSZ061>065-074>080-084>089-220400-
SOUTHWEST KANSAS

CITY           SKY/WX    TMP DP  RH WIND       PRES   REMARKS
DODGE CITY     LGT RAIN  42  39  89 NE7       29.44R
ELKHART          N/A     38  32  79 N13         N/A  WCI  30
GARDEN CITY    LGT RAIN  41  39  93 NE10      29.45R
GREAT BEND     CLOUDY    42  38  85 NE7       29.47R
LIBERAL        CLOUDY    43  36  75 NE12      29.39R
$$

KSZ066>073-081>083-090>101-220400-
SOUTHEAST KANSAS

CITY           SKY/WX    TMP DP  RH WIND       PRES   REMARKS
CHANUTE        CLOUDY    53  42  66 NE7       29.45S
COFFEYVILLE    CLOUDY    47  43  86 E7        29.43S
HUTCHINSON     CLOUDY    45  43  93 E8        29.44S
MEDICINE LODGE   N/A     47  38  71 E12       29.39S
NEWTON         CLOUDY    44  43  96 E7        29.46R
PARSONS        CLOUDY    50  44  80 E7        29.44S
WICHITA INTL   CLOUDY    48  41  76 E9        29.43S
WICHITA JABRA  CLOUDY    45  42  89 NE8       29.44S
WICHITA MCCONL CLOUDY    46  39  76 NE13      29.42F
WINFIELD       CLOUDY    49  40  71 NE8       29.43R
$$

KSZ007>012-019>026-033>040-048>060-102>105-220400-
NORTHEAST KANSAS

CITY           SKY/WX    TMP DP  RH WIND       PRES   REMARKS
CONCORDIA      CLOUDY    42  37  82 NE3       29.51R
EMPORIA        LGT RAIN  45  44  97 E7        29.49R
LAWRENCE       CLOUDY    46  45  96 SE5       29.51S
MANHATTAN      CLOUDY    48  42  80 CALM      29.50R
OLATHE IND     CLOUDY    46  44  93 NE6       29.51F
OLATHE EXE     CLOUDY    47  44  90 E7        29.51F
SALINA         CLOUDY    46  39  76 E8        29.48
TOPEKA BILLARD CLOUDY    46  43  89 NW3       29.50F
TOPEKA FORBES  LGT RAIN  46  44  93 MISG      29.50S
$$



USA.gov is the U.S. government's official web portal to all federal, state and local government web resources and services.